This is the latest recevied weather packets stored in our database for station/object DC1MAK-13. If no packets are shown the sender has not sent any weather packets the latest 10 day(s).
| Time | Temp. | Humidity | Pressure | Rain* | Wind** | Luminosity | Snow |
|---|---|---|---|---|---|---|---|
| 1777916211 | 18.89° C | 52% | 982.1 hPa | - | - | - | - |
| 1777915908 | 18.89° C | 51% | 982 hPa | - | - | - | - |
| 1777915604 | 19.44° C | 50% | 982 hPa | - | - | - | - |
| 1777914999 | 19.44° C | 49% | 982 hPa | - | - | - | - |
| 1777914699 | 19.44° C | 49% | 982 hPa | - | - | - | - |
| 1777914390 | 19.44° C | 49% | 982 hPa | - | - | - | - |
| 1777914086 | 19.44° C | 48% | 982 hPa | - | - | - | - |
| 1777913783 | 19.44° C | 47% | 982.1 hPa | - | - | - | - |
| 1777913179 | 19.44° C | 48% | 982 hPa | - | - | - | - |
| 1777912872 | 20° C | 47% | 982 hPa | - | - | - | - |
| 1777908319 | 21.67° C | 36% | 982 hPa | - | - | - | - |
| 1777907407 | 22.22° C | 35% | 982 hPa | - | - | - | - |
| 1777906499 | 23.89° C | 35% | 982.1 hPa | - | - | - | - |
| 1777905889 | 25.56° C | 32% | 982.1 hPa | - | - | - | - |
| 1777905585 | 23.89° C | 34% | 982.2 hPa | - | - | - | - |
| 1777904979 | 23.89° C | 33% | 982.2 hPa | - | - | - | - |
| 1777904371 | 24.44° C | 32% | 982.3 hPa | - | - | - | - |
| 1777903764 | 24.44° C | 33% | 982.3 hPa | - | - | - | - |
| 1777902853 | 23.33° C | 34% | 982.4 hPa | - | - | - | - |
| 1777901942 | 23.89° C | 33% | 982.6 hPa | - | - | - | - |
| 1777901339 | 23.89° C | 33% | 982.6 hPa | - | - | - | - |
| 1777901031 | 23.33° C | 34% | 982.7 hPa | - | - | - | - |
| 1777900727 | 23.89° C | 34% | 982.7 hPa | - | - | - | - |
| 1777900424 | 23.33° C | 34% | 982.8 hPa | - | - | - | - |
| 1777899819 | 23.33° C | 34% | 982.8 hPa | - | - | - | - |
* Rain since midnight (hover to see other rain measurements)
** Current wind speed in m/s (hover to see current wind gust speed)